www.pogodaiklimat.ru

Погода и климат >> Архив погоды >> Пакистан >> Хайдарабат


ПОГОДА в Хайдарабате

  • Прогноз погоды в Хайдарабате
  • Монитор погоды в Хайдарабате

АРХИВ ПОГОДЫ в Хайдарабате

Время (UTC), дата Ветер
(напр.,м/с)
 
Видим.   Явления Облачность Т
(С)
Тd
(С)
f
(%)
Тe
(С)
Тes
(С)
Комфортность P
(гПа)
Po
(гПа)
Тmin
(С)
Tmax
(С)
R
(мм)
R24
(мм)
S
(см)
18 14.05 ЮЗ 6 4000 м ясно +28.5 +23.5 74 +39 +39 очень
душно
1004.6 999.8
21 14.05 ЮЗ 4 4000 м ясно +28.0 +23.7 77 +38 +38 очень
душно
1004.3 999.4
00 15.05 ЮЗ 2 4000 м ясно +27.0 +23.4 81 +37 +37 очень
душно
1004.1 999.2
03 15.05 ЮЗ 2 4000 м ясно +28.5 +23.5 74 +39 +44 очень
душно
1006.0 1001.2 +25.1
06 15.05 ЮЗ 3 4000 м ясно +34.0 +20.8 46 +41 +57 опасность
перегрева
1006.4 1001.6
09 15.05 ЮЗ 4 4000 м ясно +36.5 +22.1 43 +45 +57 опасность
перегрева
1005.0 1000.3
12 15.05 ЮЗ 7 4000 м ясно +37.0 +18.1 33 +41 +42 опасность
перегрева
1003.2 998.5 +38.0
15 15.05 ЮЗ 2 4000 м ясно +31.5 +18.5 46 +36 +36 очень
душно
1004.5 999.7
18 15.05 ЮЗ 2 4000 м ясно +28.5 +21.9 67 +37 +37 очень
душно
1006.6 1001.8
21 15.05 ЮЗ 4 4000 м ясно +27.5 +22.4 74 +36 +36 очень
душно
1005.9 1001.0
00 16.05 ЮЗ 3 4000 м ясно +27.0 +22.6 77 +36 +36 очень
душно
1005.7 1000.8
03 16.05 ЮЗ 2 4000 м мгла ясно +28.5 +23.5 74 +39 +44 очень
душно
1007.0 1002.2 +24.5
06 16.05 ЮЗ 1 4000 м ясно +33.5 +21.9 51 +42 +65 опасность
перегрева
1008.0 1003.2
09 16.05 штиль 0 4000 м 4/0
[Ac trans]
+37.0 +18.1 33 +41 +60 опасность
перегрева
1006.3 1001.6
12 16.05 ЮЗ 10 4000 м пыльный позёмок 5/0
[Ac trans]
+37.0 +19.1 35 +42 +42 опасность
перегрева
1004.7 1000.0 +38.2
15 16.05 СЗ 2 4000 м 4/0
[Ac trans]
+33.0 +17.6 40 +37 +37 очень
душно
1007.5 1002.7
18 16.05 штиль 0 4000 м ясно +28.0 +16.9 51 +32 +32 душно 1008.7 1003.8
21 16.05 Ю 3 4000 м ясно +26.0 +18.2 62 +31 +31 очень
душно
1007.7 1002.8
00 17.05 штиль 0 4000 м ясно +24.0 +19.4 75 +29 +29 душно 1006.5 1001.6
03 17.05 ЮЗ 5 4000 м 4/0
[Ac trans]
+28.5 +20.2 61 +35 +37 очень
душно
1007.8 1003.0 +22.0
06 17.05 ЮЗ 1 4000 м 4/0
[Ac trans]
+35.0 +14.1 29 +36 +53 опасность
солнечного
удара
1008.3 1003.6
09 17.05 штиль 0 4000 м 4/0
[Ac trans]
+38.0 +11.6 21 +37 +57 опасность
солнечного
удара
1005.7 1001.0
12 17.05 ЮЗ 11 4000 м пыльный позёмок 3/0
[Ac trans]
+37.0 +17.1 31 +40 +40 очень
душно
1003.9 999.2 +39.5
15 17.05 ЮЗ 3 4000 м ясно +32.5 +17.9 42 +37 +37 очень
душно
1005.7 1000.9
18 17.05 ЮЗ 11 4000 м пыльный позёмок ясно +30.5 +19.1 51 +36 +36 очень
душно
1008.2 1003.4
21 17.05 ЮЗ 2 4000 м ясно +29.0 +19.9 58 +35 +35 очень
душно
1006.2 1001.4
00 18.05 ЮЗ 2 4000 м ясно +27.0 +19.3 63 +33 +33 очень
душно
1005.5 1000.6
03 18.05 ЮЗ 3 4000 м 3/0
[Ac trans]
+30.0 +19.4 53 +36 +40 очень
душно
1007.1 1002.3 +24.1
06 18.05 ЮЗ 3 4000 м 3/0
[Ac trans]
+36.0 +16.7 32 +39 +52 опасность
солнечного
удара
1007.6 1002.9
09 18.05 З 2 4000 м 3/0
[Ac trans]
+39.0 +13.3 22 +39 +55 опасность
солнечного
удара
1006.1 1001.4
12 18.05 ЮЗ 6 4000 м 4/0
[Ac trans]
+39.5 +15.4 24 +41 +42 опасность
перегрева
1004.2 999.6 +41.0
15 18.05 ЮЗ 3 4000 м 6/0
[Ac trans]
+33.0 +21.0 49 +40 +40 очень
душно
1006.2 1001.4
18 18.05 ЮЗ 5 4000 м 4/0
[Ac trans]
+30.5 +21.7 59 +39 +39 очень
душно
1007.2 1002.4
21 18.05 ЮЗ 1 4000 м 3/0
[Ac trans]
+29.5 +22.2 65 +38 +38 очень
душно
1005.9 1001.1
00 19.05 ЮЗ 1 4000 м 1/0
[Ac trans]
+28.0 +22.1 70 +36 +36 очень
душно
1005.2 1000.3
03 19.05 ЮЗ 1 4000 м 4/0
[Ac trans]
+29.0 +22.4 68 +38 +43 очень
душно
1006.8 1002.0 +24.1
06 19.05 ЮЗ 7 4000 м 5/0
[Ac trans]
+35.5 +18.0 36 +39 +43 очень
душно
1007.2 1002.5
09 19.05 ЮЗ 3 4000 м 5/0
[Ac trans]
+38.0 +14.7 25 +39 +51 опасность
солнечного
удара
1004.7 1000.7
12 19.05 ЮЗ 9 4000 м 4/0
[Ac trans]
+37.5 +19.8 36 +43 +43 опасность
перегрева
1004.4 999.7 +39.0
15 19.05 ЮЗ 4 4000 м 4/0
[Ac trans]
+32.0 +22.6 58 +42 +42 опасность
перегрева
1006.4 1001.6
18 19.05 ЮЗ 5 4000 м 4/0
[Ac trans]
+30.0 +22.8 65 +40 +40 очень
душно
1007.5 1002.7
21 19.05 ЮЗ 2 4000 м ясно +28.0 +22.9 74 +37 +37 очень
душно
1006.1 1001.2
00 20.05 ЮЗ 3 4000 м ясно +27.0 +22.6 77 +36 +36 очень
душно
1005.7 1000.8
03 20.05 ЮЗ 3 4000 м ясно +30.0 +20.3 56 +37 +41 очень
душно
1007.3 1002.5 +25.0
06 20.05 ЮЗ 6 4000 м 3/0
[Ac trans]
+36.0 +18.7 36 +40 +46 очень
душно
1007.8 1003.1
09 20.05 штиль 0 4000 м 5/0
[Ac trans]
+39.5 +16.5 26 +42 +60 опасность
перегрева
1006.3 1001.7
12 20.05 ЮЗ 10 4000 м пыльный позёмок 5/0
[Ac trans]
+38.5 +18.2 31 +42 +42 опасность
перегрева
1004.8 1000.1 +40.8
15 20.05 ЮЗ 3 4000 м 5/0
[Ac trans]
+35.5 +18.0 36 +39 +39 очень
душно
1005.4 1000.7
18 20.05 ЮЗ 5 4000 м ясно +31.0 +22.3 60 +40 +40 очень
душно
1006.8 1002.0
21 20.05 ЮЗ 2 4000 м ясно +28.5 +21.9 67 +37 +37 очень
душно
1006.0 1001.2
00 21.05 ЮЗ 4 4000 м ясно +27.0 +21.8 73 +35 +35 очень
душно
1005.3 1000.6
03 21.05 ЮЗ 2 4000 м 5/0
[Ac trans]
+30.0 +23.5 68 +41 +44 опасность
перегрева
1006.6 1001.8 +24.5
06 21.05 штиль 0 4000 м 5/0
[Ci fib]
+37.5 +20.7 38 +44 +68 опасность
перегрева
1006.9 1002.2
09 21.05 штиль 0 4000 м 5/4 1200 м
[Cu Sc]
+41.5 +16.3 23 +43 +57 опасность
перегрева
1005.1 1000.4
12 21.05 Ю 7 4000 м 5/5 1200 м
[Cu Sc]
+39.0 +17.9 29 +42 +43 опасность
перегрева
1003.1 998.5 +43.0
15 21.05 Ю 3 4000 м 5/0
[Ci fib]
+34.5 +21.4 47 +42 +42 опасность
перегрева
1004.0 999.3

 

Местоположение метеостанции Хайдарабат (Пакистан): широта 25.38 долгота 68.42 высота над уровнем моря 30 м.

В архиве по умолчанию представлена погода в Хайдарабате за последнюю неделю. Архивные данные за месяц целиком и за предыдущие месяцы, начиная с января 2011 года, Вы можете получить, выбрав интересующий диапазон дат из раскрывающегося списка и нажав кнопку "Ввод!".


*Определитесь, кто Вы:
робот инопланетянин человек

Внимание! Время в таблицах - всемирное. Для получения местного времени необходимо прибавить поправку, которая равна 5 ч.

Смотрите также архив погоды в соседних городах и на ближайших метеорологических станциях:

Погода в Сакранде (Пакистан) (32 км)
Погода в Мир Пур Кхас (Пакистан) (56 км)
Погода в Татте (Пакистан) (87 км)
Погода в Бадине (Пакистан) (96 км)
Погода в Навабшахе (Пакистан) (97 км)
Погода в Чоре (Пакистан) (137 км)
Погода в Карачи (Пакистан) (140 км)
Погода в Митхи (Пакистан) (154 км)
Погода в Пад Идан (Пакистан) (166 км)
Погода в Мохенджо-Даро (Пакистан) (218 км)

Пояснения к столбцам:

Ветер - указаны скорость ветра в м/с - средняя за 10 мин, порывы в срок и между сроками (в фигурных скобках) и направление, откуда дует ветер: С - северный, СВ - северо-восточный, В - восточный, ЮВ - юго-восточный, Ю - южный, ЮЗ - юго-западный, З - западный, СЗ - северо-западный.
Видимость - горизонтальная дальность видимости в метрах или километрах. При видимости от 1 до 10 км при отсутствии осадков обычно наблюдается дымка, при ухудшении видимости до 1 км и менее - туман. В сухую погоду видимость может ухудшаться дымом, пылью или мглою.
Явления - указаны атмосферные явления, наблюдавшиеся в срок или в последний час перед сроком; фигурными скобками обозначены явления, наблюдавшиеся между сроками (за 1-3 часа до срока); квадратными скобками обозначены град или гололедные отложения с указанием их диаметра в мм.
Облачность - указаны через наклонную черту общая и нижняя облачность в баллах и высота нижней границы облаков в метрах; квадратными скобками обозначены формы облаков: Ci - перистые, Cs - перисто-слоистые, Cc - перисто-кучевые, Ac - высококучевые, As - высокослоистые, Sc - слоисто-кучевые, Ns - слоисто-дождевые, Cu - кучевые, Cb - кучево-дождевые. Подробнее классификацию облаков см. в Атласе облаков (PDF).
T - Температура воздуха - температура, измеренная на высоте 2 м над землей.
Td - Температура точки росы - температура, при понижении до которой содержащийся в воздухе водяной пар достигнет насыщения.
f - Относительная влажность воздуха - влажноcть воздуха, измеренная на высоте 2 м над землей.
Te - Эффективная температура - температура, которую ощущает одетый по сезону человек в тени. Характеристика душности погоды. При расчете учитывается влияние влажности воздуха и скорости ветра на теплоощущения человека.
Tes - Эффективная температура на солнце - температура, которую ощущает человек, с поправкой на солнечный нагрев. Характеристика знойности погоды. Зависит от высоты солнца над горизонтом, облачности и скорости ветра. Ночью, в пасмурную погоду, а также при ветре 12 м/с и более поправка равна нулю.
P - Атмосферное давление - приведенное к уровню моря атмосферное давление.
Po - Атмосферное давление - измеренное на уровне метеостанции атмосферное давление.
Tmin - Минимальная температура - минимум температуры воздуха на высоте 2 м над землей.
Tmax - Максимальная температура - максимум температуры воздуха на высоте 2 м над землей.
R - Количество осадков - Количество выпавших осадков за период времени, мм. При наведении курсора мыши на число - период времени, за который выпало указанное количество осадков.
R24 - Количество осадков - Количество выпавших осадков за 24 часа, мм.
S - Снежный покров - Высота снежного покрова, см. При наведении курсора мыши на число - состояние снежного покрова и степень покрытия местности в баллах.